Location: Peebles
(55.6412°N, 3.1714°W)
Time: 08:52:59
(UTC+01:00)

USA 305 - Pass Details

Date: 26 September 2021
Orbit: 547 x 588 km, 54.0° (Epoch: 03 October)

Event Time Altitude Azimuth Distance (km) Brightness Sun altitude
Rises 21:26:14 0° 283° (WNW) 2,750 7.7 -20.6°
Reaches altitude 10° 21:28:37 10° 274° (W) 1,859 6.4 -20.9°
Maximum altitude 21:32:24 33° 210° (SSW) 974 4.0 -21.3°
Enters shadow 21:32:54 32° 195° (SSW) 997 3.9 -21.4°
